TIME,DELAY(SENSOR),PRES,T(CTD),SAL,OXYGEN,RAWTEMP,T(OPTODE),TCPHASE,FLUOR,BETA(BETA700),BETA(BETA412),BETA(BETA440),CDOM,C(CSC),CHECK
1335470470,5807,992.5000000000000000,4.2365999221801760,34.4964981079101560,46.0876502990722660,672.5037841796875000,4.2154498100280760,54.2529411315918000,52,100,86,79,82,15288,12281
1335470669,5807,972.2299804687500000,4.3299999237060550,34.4892997741699200,44.8318710327148440,669.7426757812500000,4.3066959381103520,54.3987617492675800,51,100,85,80,83,15289,41261
1335470880,5807,951.2500000000000000,4.4084000587463380,34.4855003356933600,44.9082412719726560,667.3732910156250000,4.3849301338195800,54.3612518310546900,53,100,90,80,83,15287,62436
1335471093,5807,930.0000000000000000,4.4507999420166020,34.4818000793457000,44.3474388122558600,666.1171875000000000,4.4263758659362790,54.4243583679199200,53,99,94,80,83,15288,411
1335471304,5808,909.5900268554688000,4.5089001655578610,34.4780998229980500,43.9390907287597660,664.2720947265625000,4.4872260093688965,54.4597015380859400,52,101,89,80,83,15288,22870
1335471529,5807,888.9000244140625000,4.5525999069213870,34.4747009277343750,43.1161003112793000,662.9954833984375000,4.5293049812316895,54.5668106079101560,53,100,89,79,84,15289,37241
1335471766,5807,868.0499877929688000,4.6076002120971680,34.4687995910644500,42.3059692382812500,661.2783203125000000,4.5858798027038570,54.6631507873535160,52,102,90,80,83,15288,22273
1335472015,5808,846.8400268554688000,4.6957001686096190,34.4593009948730500,41.3232192993164060,658.6320800781250000,4.6729950904846190,54.7843208312988300,53,101,90,79,84,15286,49993
1335472262,5807,826.2999877929688000,4.7600002288818360,34.4519004821777340,40.4421882629394500,656.7083740234375000,4.7362771034240720,54.8919105529785160,53,101,90,80,84,15290,35289
1335472512,5807,805.8499755859375000,4.8246002197265625,34.4444007873535160,39.6715316772460940,654.7545166015625000,4.8005118370056150,54.9848098754882800,53,103,91,80,83,15286,46005
1335472773,5808,784.0700073242188000,4.8913002014160160,34.4352989196777340,38.6427688598632800,652.6394042968750000,4.8699970245361330,55.1227302551269500,53,103,89,81,83,15286,29871
1335473031,5807,762.6199951171875000,4.9503998756408690,34.4272994995117200,37.7390594482421900,650.8782958984375000,4.9278178215026855,55.2473983764648440,53,102,89,80,82,15286,28724
1335473244,5807,741.7999877929688000,5.0588998794555660,34.4070014953613300,37.7563285827636700,647.4647216796875000,5.0397949218750000,55.2092895507812500,53,100,88,79,83,15287,53201
1335473479,5809,721.0900268554688000,5.1915001869201660,34.3846015930175800,36.2832908630371100,643.4384155273438000,5.1717090606689450,55.3967018127441400,53,101,90,80,84,15286,9969
1335473728,5807,700.3099975585938000,5.3461999893188480,34.3619995117187500,34.4567985534668000,638.8369750976562000,5.3222560882568360,55.6442985534668000,52,101,89,81,84,15283,22576
1335473977,5808,679.9000244140625000,5.4337000846862790,34.3473014831543000,34.3796615600585940,636.1024169921875000,5.4116210937500000,55.6282997131347660,53,103,88,80,83,15281,16549
1335474262,5807,658.4500122070312000,5.5904002189636230,34.3140983581543000,36.0237693786621100,631.2849731445312000,5.5688548088073730,55.3135604858398440,53,105,89,81,82,15283,4903
1335474542,5808,637.4899902343750000,5.8173999786376950,34.2803993225097660,38.9725112915039060,624.3917236328125000,5.7934298515319820,54.7656707763671900,53,102,89,80,83,15283,24998
1335474753,5807,616.0999755859375000,5.8916001319885250,34.2699012756347660,40.4247512817382800,622.2380981445312000,5.8634929656982420,54.5122299194335940,53,104,91,79,84,15280,27346
1335474955,5805,594.9500122070312000,6.0124001502990720,34.2281990051269500,47.2616081237793000,617.9331054687500000,6.0034070014953610,53.4288291931152340,52,103,91,81,84,15281,12910
1335475180,5809,573.3400268554688000,6.1888999938964840,34.2112007141113300,51.9608192443847660,612.7963256835938000,6.1701111793518070,52.6885414123535160,52,105,85,81,83,15281,5105
1335475492,5807,551.7899780273438000,6.3323001861572270,34.1977005004882800,55.9851989746093750,608.3770751953125000,6.3133201599121090,52.0676193237304700,52,106,91,80,82,15278,13097
1335475741,5805,530.9500122070312000,6.6392998695373535,34.1791992187500000,64.2906417846679700,599.2291259765625000,6.6091651916503910,50.8352394104003900,52,103,90,81,81,15281,12464
1335476000,5807,509.3999938964844000,6.9651999473571780,34.1916999816894500,68.0634536743164000,588.8981933593750000,6.9423117637634280,50.2108993530273440,52,105,90,80,81,15277,50900
1335479700,5964,198.1000061035156200,17.5536003112792970,34.7714004516601560,219.2886047363281200,250.4761962890625000,17.4759998321533200,31.8859996795654300,51,113,92,82,67,15256,33313
1335479789,5807,192.0099945068359400,18.2087993621826170,34.8496017456054700,218.3123931884765600,228.9653015136718800,18.1329402923584000,31.6392402648925780,54,112,92,81,67,15257,35326
1335479888,5806,186.3899993896484400,18.4155006408691400,34.8861007690429700,218.8070983886718800,220.3220062255859400,18.3968906402587900,31.4942207336425780,56,116,91,80,67,15248,20715
1335480003,5807,180.7299957275390600,18.5736007690429700,34.9076995849609400,218.8125000000000000,215.0281066894531200,18.5585594177246100,31.4211997985839840,59,115,91,81,67,15243,22535
1335480137,5808,174.5299987792968800,18.8250007629394530,34.9342002868652340,217.9228057861328000,206.3934020996093800,18.8222808837890620,31.3501396179199220,63,113,90,81,66,15245,65425
1335480264,5805,168.8800048828125000,19.0993003845214840,34.9659996032714840,217.6027984619140600,197.7548065185547000,19.0861701965332030,31.2491302490234380,68,116,90,82,66,15234,44395
1335480416,5802,163.0599975585937500,19.3169002532959000,34.9892005920410160,217.1549072265625000,190.5187072753906200,19.3072605133056640,31.1748008728027340,73,115,93,81,65,15229,39893
1335480597,5804,157.0200042724609400,19.7113990783691400,35.0269012451171900,216.6428070068359400,177.5034942626953000,19.7050704956054700,31.0259609222412100,80,117,93,82,65,15224,10735
1335480749,5805,150.6399993896484400,19.8945007324218750,35.0439987182617200,216.3385009765625000,171.0467071533203000,19.9025001525878900,30.9553108215332030,84,118,89,82,65,15220,833
1335480878,5805,144.6499938964843800,20.8129005432128900,35.1134986877441400,214.9237976074218800,142.5919952392578000,20.7733993530273440,30.6504096984863280,97,123,91,82,63,15205,24331
1335481012,5805,138.6100006103515600,21.2877006530761720,35.1544990539550800,216.9953002929687500,126.5253982543945300,21.2659091949462900,30.3301296234130860,111,123,92,83,64,15188,53398
1335481166,5808,132.9299926757812500,21.7443008422851560,35.1801986694335940,219.4524993896484400,112.1339035034179700,21.7076396942138670,30.0155601501464840,114,126,89,82,63,15181,41186
1335481477,5808,126.7600021362304700,22.1996002197265620,35.2182006835937500,223.9326019287109400,97.0426864624023400,22.1715202331542970,29.5952892303466800,122,125,91,83,62,15163,10792
1335481629,5807,121.0100021362304700,22.3687000274658200,35.2288017272949200,227.3146972656250000,91.1101608276367200,22.3540897369384770,29.3533592224121100,133,128,91,83,64,15150,19207
1335481794,5806,114.6999969482421900,22.5755996704101560,35.2435989379882800,229.6609039306640600,84.1934661865234400,22.5671005249023440,29.1518802642822270,143,128,92,83,61,15123,63914
1335481928,5807,108.5999984741211000,22.6131992340087900,35.2471008300781250,231.1761016845703000,82.8960571289062500,22.6070709228515620,29.0631198883056640,146,127,93,85,62,15118,64773
1335482055,5808,102.8600006103515600,23.0063991546630860,35.2669982910156250,233.3574981689453000,70.7017364501953100,22.9831199645996100,28.8058490753173830,130,127,93,83,62,15123,1751
1335484127,5804,19.4599990844726560,24.6236991882324220,35.1332015991210940,242.3334960937500000,17.2330703735351560,24.6397590637207030,27.7318706512451170,50,120,89,84,62,15128,34493
1335484179,5807,16.2199993133544920,24.6310997009277340,35.1310005187988300,242.2357025146484400,16.8722305297851560,24.6509895324707030,27.7316303253173830,51,120,94,83,50,15132,21300
1335484232,5806,13.0600004196167000,24.6446990966796880,35.1292991638183600,242.2758941650390600,16.5061798095703120,24.6623802185058600,27.7254009246826170,50,120,93,83,58,15132,25248
1335484284,5806,9.9700002670288090,24.6744003295898440,35.1279983520507800,242.2812957763672000,15.4306497573852540,24.6958599090576170,27.7119293212890620,50,120,91,82,53,15134,15845
1335484354,5805,6.4499998092651370,24.7091007232666000,35.1277999877929700,242.1293029785156200,14.5569295883178710,24.7230606079101560,27.7079505920410160,50,118,92,85,53,15141,32740
1335484408,5805,4.4800000190734860,24.7373008728027340,35.1288986206054700,242.3484039306640600,13.1593103408813480,24.7665691375732420,27.6809902191162100,50,117,93,83,55,15142,41500
1335484460,5805,3.5000000000000000,0.0000000000000000,0.0000000000000000,242.2872924804687500,11.0378503799438480,24.8326492309570300,27.6578006744384770,49,118,90,87,56,15141,42766
1335484487,5806,2.6300001144409180,0.0000000000000000,0.0000000000000000,242.0541992187500000,10.6249904632568360,24.8455104827880860,27.6629695892334000,50,118,93,83,49,15143,20288
1335484514,5807,1.9299999475479126,0.0000000000000000,0.0000000000000000,242.3179931640625000,10.3801002502441400,24.8531398773193360,27.6482200622558600,48,118,94,82,57,15148,12338
